Location: Delettes
(50.6178°N, 2.2123°E)
Time: 17:45:25
(UTC+00:00)

STARLINK-1036 - Pass Details

Date: 27 February 2020
Orbit: 549 x 550 km, 53.0° (Epoch: 06 April)

Event Time Altitude Azimuth Distance (km) Brightness Sun altitude
Rises 18:38:37 0° 253° (WSW) 2,715 8.7 -11.9°
Reaches altitude 10° 18:40:50 10° 254° (WSW) 1,823 7.6 -12.3°
Maximum altitude 18:44:59 82° 342° (NNW) 561 3.6 -12.9°
Enters shadow 18:47:51 20° 70° (ENE) 1,319 5.0 -13.4°
